Change the Weather History Date:

Tuesday, February 5, 2013

  Actual Average Record
Temperature  
Mean Temperature 55 °F 48 °F  
Max Temperature 66 °F 60 °F 78 °F (2008)
Min Temperature 43 °F 36 °F 16 °F (2009)
Degree Days  
Heating Degree Days 10 17  
Month to date heating degree days 92 86  
Since 1 July heating degree days 1289 1578  
Growing Degree Days 4 (Base 50)    
Moisture  
Dew Point 48 °F    
Average Humidity 77    
Maximum Humidity 93    
Minimum Humidity 60    
Precipitation  
Precipitation T in 0.14 in 0.80 in (2014)
Month to date precipitation 0.08 0.77  
Year to date precipitation 3.22 5.32  
Snow  
Snow 0.00 in - - ()
Month to date snowfall 0.0  
Since 1 July snowfall 0.0  
Snow Depth 0.00 in    
Sea Level Pressure  
Sea Level Pressure 30.04 in    
Wind  
Wind Speed 3 mph (SSW)    
Max Wind Speed 13 mph    
Max Gust Speed 16 mph    
Visibility 6 miles    
Events Fog    
T = Trace of Precipitation, MM = Missing Value Source: NWS Daily Summary

Daily Weather History Graph

Daily Weather History Graph

Search for Another Location

Airport or City:

Trip Planner

Search our weather history database for the weather conditions in past years. The results will help you decide how hot, cold, wet, or windy it might be!

Date:

Astronomy

Feb. 05, 2013 Rise Set
Actual Time 6:34 AM CST 5:22 PM CST
Civil Twilight 6:09 AM CST 5:47 PM CST
Nautical Twilight 5:40 AM CST 6:16 PM CST
Astronomical Twilight 5:11 AM CST 6:45 PM CST
Moon 2:09 AM CST (2/5) 12:45 PM CST (2/5)
Length of Visible Light 11h 38m
Length of Day
10h 47m
Waning Crescent, 26% of the Moon is Illuminated
Feb 5
Waning Crescent
Feb 10
New
Feb 17
First Quarter
Feb 25
Full
Mar 4
Last Quarter

Hourly Weather History & Observations

Time (CST) Temp. Dew Point Humidity Pressure Visibility Wind Dir Wind Speed Gust Speed Precip Events Conditions
12:53 AM 45.0 °F 39.9 °F 82% 30.01 in 10.0 mi Calm Calm - N/A   Clear
1:53 AM 46.0 °F 41.0 °F 83% 30.00 in 10.0 mi Calm Calm - N/A   Clear
2:53 AM 45.0 °F 41.0 °F 86% 29.99 in 10.0 mi Calm Calm - N/A   Overcast
3:53 AM 46.9 °F 42.1 °F 83% 29.99 in 10.0 mi Calm Calm - 0.00 in   Partly Cloudy
4:53 AM 46.0 °F 42.1 °F 86% 30.00 in 10.0 mi Calm Calm - N/A   Overcast
5:53 AM 48.9 °F 45.0 °F 86% 30.01 in 8.0 mi Calm Calm - N/A   Mostly Cloudy
6:53 AM 48.0 °F 46.0 °F 93% 30.04 in 6.0 mi Calm Calm - N/A   Partly Cloudy
7:53 AM 51.1 °F 48.0 °F 89% 30.06 in 6.0 mi Calm Calm - N/A   Overcast
8:53 AM 57.9 °F 48.9 °F 72% 30.06 in 10.0 mi SW 4.6 mph - N/A   Clear
9:53 AM 63.0 °F 48.9 °F 60% 30.06 in 10.0 mi SW 11.5 mph - N/A   Scattered Clouds
10:53 AM 64.0 °F 50.0 °F 60% 30.06 in 10.0 mi SSW 9.2 mph - N/A   Overcast
11:53 AM 62.1 °F 52.0 °F 70% 30.05 in 10.0 mi SSW 9.2 mph - N/A   Overcast
12:53 PM 61.0 °F 53.1 °F 75% 30.03 in 10.0 mi SW 4.6 mph - N/A   Overcast
1:53 PM 62.1 °F 53.1 °F 72% 30.01 in 10.0 mi Calm Calm - N/A   Overcast
2:53 PM 64.9 °F 53.1 °F 65% 30.00 in 10.0 mi SW 9.2 mph - N/A   Overcast
3:53 PM 64.9 °F 53.1 °F 65% 30.00 in 10.0 mi South 6.9 mph - N/A   Overcast
4:53 PM 63.0 °F 54.0 °F 72% 29.99 in 10.0 mi SSW 4.6 mph - N/A   Mostly Cloudy
5:53 PM 57.0 °F 53.1 °F 87% 30.01 in 10.0 mi Calm Calm - N/A   Clear
6:53 PM 57.9 °F 53.1 °F 84% 29.99 in 10.0 mi SSE 5.8 mph - N/A   Clear
7:53 PM 53.1 °F 50.0 °F 89% 30.03 in 10.0 mi Calm Calm - N/A   Clear
8:53 PM 50.0 °F 48.9 °F 96% 30.04 in 7.0 mi Calm Calm - N/A   Clear
9:03 PM 50.0 °F 48.2 °F 94% 30.05 in 2.0 mi Calm Calm - N/A   Clear
9:13 PM 50.0 °F 48.2 °F 94% 30.05 in 1.2 mi Calm Calm - N/A   Clear
9:17 PM 50.0 °F 48.2 °F 94% 30.05 in 0.8 mi Calm Calm - N/A   Clear
9:22 PM 48.2 °F 48.2 °F 100% 30.06 in 1.2 mi Calm Calm - N/A   Clear
9:24 PM 48.2 °F 48.2 °F 100% 30.06 in 1.8 mi Calm Calm - N/A   Clear
9:30 PM 50.0 °F 48.2 °F 94% 30.06 in 1.2 mi Calm Calm - N/A   Partly Cloudy
9:32 PM 50.0 °F 48.2 °F 94% 30.06 in 0.8 mi Calm Calm - N/A   Mist
9:40 PM 50.0 °F 48.2 °F 94% 30.06 in 1.2 mi Calm Calm - N/A   Partly Cloudy
9:42 PM 50.0 °F 48.2 °F 94% 30.06 in 3.0 mi Calm Calm - N/A   Partly Cloudy
9:53 PM 50.0 °F 46.9 °F 89% 30.05 in 7.0 mi Calm Calm - N/A   Partly Cloudy
10:13 PM 48.2 °F 46.4 °F 93% 30.05 in 1.0 mi Calm Calm - N/A   Clear
10:15 PM 48.2 °F 46.4 °F 93% 30.06 in 0.5 mi Calm Calm - N/A Fog Fog
10:23 PM 48.2 °F 46.4 °F 93% 30.06 in 0.5 mi Calm Calm - N/A Fog Fog
10:27 PM 48.2 °F 46.4 °F 93% 30.06 in 1.5 mi Calm Calm - N/A   Partly Cloudy
10:31 PM 48.2 °F 46.4 °F 93% 30.06 in 3.0 mi Calm Calm - N/A   Scattered Clouds
10:34 PM 48.2 °F 46.4 °F 93% 30.06 in 0.8 mi Calm Calm - N/A   Mist
10:36 PM 48.2 °F 46.4 °F 93% 30.06 in 0.5 mi Calm Calm - N/A Fog Fog
10:53 PM 48.0 °F 46.0 °F 93% 30.06 in 0.2 mi Calm Calm - N/A Fog Fog
11:53 PM 50.0 °F 48.9 °F 96% 30.06 in 0.2 mi Calm Calm - N/A Fog Fog